Location: Aldenham
(51.6667°N, 0.3500°W)
Time: 08:49:44
(UTC+00:00)

Explorer 7 - Pass Details

Date: 20 February 2026
Orbit: 430 x 541 km, 50.2° (Epoch: 12 March)

Event Time Altitude Azimuth Distance (km) Brightness Sun altitude
Rises 13:59:14 0° 210° (SSW) 2,407 11.6 23.6°
Reaches altitude 10° 14:01:44 10° 191° (S) 1,556 10.7 23.4°
Maximum altitude 14:04:15 19° 145° (SE) 1,146 8.9 23.3°
Drops below altitude 10° 14:06:49 10° 99° (E) 1,599 9.1 23.1°
Sets 14:09:27 0° 81° (E) 2,501 9.8 22.9°
